Starlink 30317

operational
NORAD ID: 57675 Int'l Des: 2023-124 Owner: SPXS Country: US Constellation: starlink
LEOCIRCULAR

关于 Starlink 30317

正在加载描述...

实时位置

正在加载3D地球...

即将过境

高度历史

Altitude vs Time

uPlot chart will show altitude changes over time

两行轨道根数

1 57675C 23124N 25305.10048611 .00011539 00000+0 60011-4 0 3059
2 57675 53.1368 66.1513 0001294 127.0007 76.0757 15.80248048 16
Epoch: Nov 1, 2025 • Age: 44 hours

当前状态

高度 342.0 km
速度 7.70 km/s
星下点 -37.81°S, 61.99°W
发射日期 Aug 22, 2023
运行时间 2.1 years
类型 internet

技术详情

分类 Payload
质量 730.00 kg
干质量 700.00 kg
总质量 730.00 kg
长度 0.30 m
直径 4.10 m
跨度 29.00 m
形状 Box + pan
制造商 SPXS
平台类型 Starlink V2M
阶段状态 In Orbit
所有者/国家 SPXS/US

大型星座

Loading constellations...